Location: Tierz
(42.1336°N, 0.3549°W)
Time: 23:35:40
(UTC+00:00)

Cosmos 1346 Rocket - Pass Details

Date: 29 October 2020
Orbit: 535 x 543 km, 81.2° (Epoch: 05 December)

Event Time Altitude Azimuth Distance (km) Brightness Sun altitude
Rises 17:30:22 0° 5° (N) 2,715 6.2 -6.5°
Reaches altitude 10° 17:33:02 10° 23° (NNE) 1,818 5.1 -7.0°
Maximum altitude 17:35:58 19° 70° (ENE) 1,322 4.1 -7.5°
Drops below altitude 10° 17:38:53 10° 118° (ESE) 1,808 5.0 -8.1°
Sets 17:41:31 0° 136° (SE) 2,694 6.0 -8.5°
